This demonstration page uses our WeatherBlox Daily Observations layout. Learn more.

Left ArrowRight Arrow

44.8408, -93.29828

Hourly Observations for March 5, 2022

Temp ( °F °C ) Dew Point ( °F °C ) Humidity (%) Winds ( mph kmh ) Pressure ( in mb ) Visibility ( mi km ) Precip ( " mm )
12:25 am 00:25 Cloudy with Freezing Rain 32 0 27 -2.8 82 82 E 12 19 29.95 1014 3 5 0.06 1.52
12:45 am 00:45 Cloudy with Light Freezing Rain 33 0.6 27 -2.8 78 78 E 12 19 29.92 1013 4 6 0.11 2.79
12:49 am 00:49 Cloudy with Freezing Rain 34 1 27 -3 75 75 E 12 19 29.92 1013 3 4 0.11 2.79
12:53 am 00:53 Cloudy with Freezing Rain 33 0.6 27 -2.8 78 78 E 12 19 29.91 1013 2 3 0.15 3.81
12:56 am 00:56 Cloudy with Light Freezing Rain 33 0.6 27 -2.8 78 78 E 10 17 29.92 1013 3 5 0.01 0.25
1:09 am 01:09 Cloudy with Light Rain 33 0.6 28 -2.2 82 82 E 13 20 29.92 1013 4 6 0.02 0.51
1:13 am 01:13 Cloudy with Rain 33 0.6 28 -2.2 82 82 ESE 13 20 29.92 1013 3 4 0.03 0.76
1:20 am 01:20 Cloudy with Heavy Rain 33 0.6 28 -2.2 82 82 E 9 15 29.92 1013 3 4 0.05 1.27
1:32 am 01:32 Cloudy with Light Rain 33 0.6 28 -2.2 82 82 E 8 13 29.92 1013 7 11 0.08 2.03
1:53 am 01:53 Cloudy with Rain 33 0.6 29 -1.7 85 85 E 9 15 29.89 1012 3 5 0.10 2.54
2:53 am 02:53 Cloudy with Light Rain 33 0.6 29 -1.7 85 85 E 8 13 29.86 1011 10 16 0.02 0.51
3:35 am 03:35 Cloudy 33 0.6 29 -1.7 85 85 NE 6 9 29.86 1011 8 13 0.00 0.00
3:53 am 03:53 Cloudy 33 0.6 29 -1.7 85 85 NNE 8 13 29.84 1011 7 11 0.00 0.00
4:53 am 04:53 Cloudy with Mist and Fog 33 0.6 30 -1.1 89 89 ENE 9 15 29.82 1010 5 8 0.00 0.00
5:53 am 05:53 Cloudy with Mist and Fog 33 0.6 30 -1.1 89 89 ENE 9 15 29.80 1009 5 8 0.00 0.00
6:14 am 06:14 Cloudy with Mist and Fog 33 0.6 31 -0.6 92 92 ENE 8 13 29.81 1010 4 6 0.00 0.00
6:53 am 06:53 Cloudy with Mist and Fog 33 0.6 30 -1.1 89 89 E 8 13 29.78 1009 5 8 0.00 0.00
7:53 am 07:53 Cloudy with Mist and Fog 33 0.6 31 -0.6 92 92 E 9 15 29.78 1008 4 6 0.00 0.00
8:53 am 08:53 Cloudy with Mist and Fog 34 1.1 31 -0.6 89 89 NE 6 9 29.76 1008 3 5 0.00 0.00
9:53 am 09:53 Cloudy with Mist and Fog 35 1.7 32 0 89 89 E 6 9 29.74 1007 3 5 0.00 0.00
10:49 am 10:49 Cloudy with Mist and Fog 36 2 32 0 87 87 N 6 9 29.76 1008 3 4 0.00 0.00
10:53 am 10:53 Cloudy with Mist and Fog 35 1.7 32 0 89 89 N 7 11 29.74 1007 3 4 0.00 0.00
11:23 am 11:23 Cloudy with Mist and Fog 34 1.1 32 0 92 92 VRB 3 6 29.77 1008 3 5 0.00 0.00
11:33 am 11:33 Cloudy with Mist and Fog 34 1.1 32 0 92 92 NE 5 7 29.77 1008 3 4 0.00 0.00
11:53 am 11:53 Cloudy with Mist and Fog 34 1.1 32 0 92 92 NNE 6 9 29.75 1008 2 2 0.00 0.00
12:01 pm 12:01 Cloudy with Mist and Fog 34 1.1 32 0 92 92 NNE 5 7 29.77 1008 1 2 0.00 0.00
12:46 pm 12:46 Cloudy with Mist and Fog 34 1.1 32 0 92 92 N 7 11 29.75 1007 2 2 0.00 0.00
12:53 pm 12:53 Cloudy with Mist and Fog 34 1.1 32 0 92 92 NNE 6 9 29.74 1007 2 2 0.00 0.00
1:12 pm 13:12 Cloudy with Mist and Fog 34 1.1 32 0 92 92 VRB 5 7 29.74 1007 1 2 0.00 0.00
1:53 pm 13:53 Cloudy with Mist and Fog 34 1.1 32 0 92 92 NNE 8 13 29.68 1005 1 2 0.01 0.25
2:53 pm 14:53 Cloudy with Mist and Fog 33 0.6 32 0 96 96 NNE 9 15 29.67 1005 1 2 0.01 0.25
3:53 pm 15:53 Cloudy with Mist and Fog 33 0.6 32 0 96 96 NNE 6 9 29.69 1005 1 2 0.00 0.00
4:53 pm 16:53 Cloudy with Light Rain 33 0.6 31 -0.6 92 92 NNE 10 17 29.65 1004 1 2 0.01 0.25
5:30 pm 17:30 Cloudy with Light Rain 33 0.6 31 -0.6 92 92 N 13 20 29.67 1005 2 2 0.01 0.25
5:53 pm 17:53 Cloudy with Light Rain 33 0.6 31 -0.6 92 92 N 9 15 29.67 1005 2 2 0.04 1.02
6:18 pm 18:18 Cloudy with Light Rain 33 0.6 31 -0.6 92 92 N 9 15 29.65 1004 2 3 0.05 1.27
6:25 pm 18:25 Cloudy with Nearby Thunderstorms 33 0.6 31 -0.6 92 92 NNW 12 19 29.68 1005 2 3 0.06 1.52
6:44 pm 18:44 Cloudy with Thunderstorms 32 0 31 -0.6 96 96 NNW 8 13 29.71 1006 2 3 0.20 5.08
6:53 pm 18:53 Cloudy with Thunderstorms 32 0 30 -1.1 92 92 N 13 20 29.65 1004 2 3 0.25 6.35
6:55 pm 18:55 Cloudy with Light Freezing Rain 32 0 30 -1.1 92 92 NNE 12 19 29.66 1005 3 4 0.02 0.51
7:33 pm 19:33 Cloudy with Light Freezing Rain 32 0 30 -1.1 92 92 NE 15 24 29.59 1002 2 3 0.12 3.05
7:43 pm 19:43 Cloudy with Light Freezing Rain 32 0 30 -1.1 92 92 NW 13 20 29.63 1004 3 5 0.14 3.56
7:53 pm 19:53 Cloudy with Light Freezing Rain 32 0 30 -1.1 92 92 NNW 9 15 29.62 1003 5 8 0.14 3.56
8:10 pm 20:10 Cloudy with Light Freezing Rain and Nearby Thunderstorms 32 0 30 -1.1 92 92 NNW 9 15 29.64 1004 6 10 0.00 0.00
8:21 pm 20:21 Cloudy with Light Freezing Rain 32 0 30 -1.1 92 92 NNW 10 17 29.64 1004 6 10 0.00 0.00
8:53 pm 20:53 Cloudy with Light Freezing Rain 32 0 30 -1.1 92 92 N 12 19 29.60 1002 9 14 0.07 1.78
9:45 pm 21:45 Cloudy 32 0 30 -1.1 92 92 N 15 24 29.59 1002 8 13 0.00 0.00
9:53 pm 21:53 Cloudy 32 0 30 -1.1 92 92 N 14 22 29.59 1002 8 13 0.00 0.00
10:53 pm 22:53 Cloudy 31 -0.6 28 -2.2 89 89 N 21 33 29.59 1002 8 13 0.00 0.00
11:46 pm 23:46 Cloudy with Mist and Fog 31 -0.6 28 -2.2 89 89 NNW 14 22 29.65 1004 5 8 0.00 0.00
11:53 pm 23:53 Cloudy with Mist and Fog 31 -0.6 28 -2.2 89 89 NNW 14 22 29.63 1003 5 8 0.00 0.00

Powered by AerisWeather